TimeCST,TemperatureF,Dew PointF,Humidity,Sea Level PressureIn,VisibilityMPH,Wind Direction,Wind SpeedMPH,Gust SpeedMPH,PrecipitationIn,Events,Conditions,WindDirDegrees,DateUTC
12:53 AM,43.0,37.0,80,30.22,10.0,Calm,Calm,-,N/A,,Clear,0,2013-01-20 06:53:00
1:53 AM,42.1,37.0,82,30.22,10.0,Calm,Calm,-,N/A,,Clear,0,2013-01-20 07:53:00
2:53 AM,41.0,36.0,82,30.21,10.0,Calm,Calm,-,N/A,,Clear,0,2013-01-20 08:53:00
3:53 AM,39.9,36.0,86,30.20,10.0,Calm,Calm,-,N/A,,Clear,0,2013-01-20 09:53:00
4:53 AM,39.0,34.0,82,30.19,10.0,Calm,Calm,-,N/A,,Clear,0,2013-01-20 10:53:00
5:53 AM,39.0,35.1,86,30.19,10.0,Calm,Calm,-,N/A,,Clear,0,2013-01-20 11:53:00
6:53 AM,39.0,35.1,86,30.20,10.0,West,5.8,-,N/A,,Clear,280,2013-01-20 12:53:00
7:53 AM,37.9,34.0,86,30.23,10.0,Calm,Calm,-,N/A,,Clear,0,2013-01-20 13:53:00
8:53 AM,48.0,39.9,74,30.24,10.0,WSW,3.5,-,N/A,,Clear,250,2013-01-20 14:53:00
9:53 AM,57.9,39.9,51,30.24,10.0,WSW,6.9,-,N/A,,Clear,240,2013-01-20 15:53:00
10:53 AM,61.0,39.9,46,30.25,10.0,WSW,8.1,-,N/A,,Clear,250,2013-01-20 16:53:00
11:53 AM,64.0,39.9,41,30.22,10.0,WSW,8.1,-,N/A,,Clear,240,2013-01-20 17:53:00
12:53 PM,66.9,39.9,37,30.17,10.0,WSW,9.2,-,N/A,,Clear,240,2013-01-20 18:53:00
1:53 PM,70.0,39.0,32,30.13,10.0,Variable,6.9,-,N/A,,Clear,0,2013-01-20 19:53:00
2:53 PM,71.1,37.9,30,30.11,10.0,WSW,9.2,-,N/A,,Clear,240,2013-01-20 20:53:00
3:53 PM,71.1,37.0,29,30.09,10.0,WSW,6.9,-,N/A,,Clear,250,2013-01-20 21:53:00
4:53 PM,70.0,36.0,29,30.09,10.0,SSW,4.6,-,N/A,,Clear,200,2013-01-20 22:53:00
5:53 PM,64.9,39.0,39,30.09,10.0,Calm,Calm,-,N/A,,Clear,0,2013-01-20 23:53:00
6:53 PM,57.9,39.0,49,30.12,10.0,Calm,Calm,-,N/A,,Clear,0,2013-01-21 00:53:00
7:53 PM,57.9,42.1,56,30.12,10.0,South,4.6,-,N/A,,Clear,170,2013-01-21 01:53:00
8:53 PM,55.0,43.0,64,30.13,10.0,Calm,Calm,-,N/A,,Clear,0,2013-01-21 02:53:00
9:53 PM,52.0,42.1,69,30.13,10.0,Calm,Calm,-,N/A,,Clear,0,2013-01-21 03:53:00
10:53 PM,53.1,43.0,69,30.14,10.0,Calm,Calm,-,N/A,,Clear,0,2013-01-21 04:53:00
11:53 PM,48.9,42.1,77,30.14,10.0,Calm,Calm,-,N/A,,Clear,0,2013-01-21 05:53:00